Home > Weather > Hürth > Past weeks

Flag for Germany Weather for the Past 2 Weeks in Hürth, North Rhine-Westphalia, Germany

Now
52 °F

Light rain. Overcast.


Feels Like: 48 °F
Forecast: 36 / 60 °F
Wind: 12 mph from Southwest

Location: Noervenich

Current Time: May 3, 2016 at 8:03:56 AM

Latest Report: May 3, 2016 at 6:20 AM


Visibility: 5 mi

Pressure: 30.07 "Hg

Humidity: 88%

Dew Point: 48 °F

Location of HürthLocation

Historic Weather in Hürth — Graph

°F

Hürth Temperature Yesterday

Maximum temperature yesterday: 66 °F (at 3:20 PM)
Minimum temperature yesterday: 37 °F (at 6:20 AM)
Average temperature yesterday: 54 °F

High & Low Weather Summary for the Past Weeks

 TemperatureHumidityPressure
High68 °F (Apr 21, 4:20 PM)100% (Apr 30, 5:20 AM)30.48 "Hg (Apr 30, 5:20 AM)
Low32 °F (Apr 18, 6:20 AM)26% (Apr 21, 4:20 PM)29.53 "Hg (Apr 26, 10:20 AM)
Average46 °F70%30.03 "Hg
* Reported Apr 18 6:20 AM — May 3 6:20 AM, Hürth, Weather by CustomWeather, © 2016

Note: Actual official high and low records may vary slightly from our data, if they occured in-between our weather recording intervals... More about our weather records

Advertising

Hürth Weather History for the Previous 24 Hours

Scroll right to see more
 ConditionsComfort  
Time TempWeatherWind HumidityBarometerVisibility
6:20 AM
Tue, May 3
52 °FLight rain. Overcast.12 mph88%30.07 "Hg5 mi
5:20 AM52 °FOvercast.3 mph77%30.07 "HgN/A
4:20 AM52 °FLight rain. Mostly cloudy.No wind72%30.07 "HgN/A
3:20 AM54 °FPartly cloudy.2 mph63%30.09 "HgN/A
2:20 AM54 °FPartly cloudy.7 mph58%30.09 "HgN/A
1:20 AM52 °FPartly cloudy.2 mph58%30.09 "HgN/A
12:20 AM54 °FPartly cloudy.2 mph58%30.12 "HgN/A
11:20 PM
Mon, May 2
55 °FPassing clouds.5 mph63%30.12 "HgN/A
10:20 PM57 °FPassing clouds.5 mph63%30.12 "HgN/A
9:20 PM59 °FPartly sunny.6 mph63%30.12 "HgN/A
8:20 PM61 °FPartly sunny.3 mph55%30.09 "HgN/A
7:20 PM63 °FPartly sunny.7 mph56%30.09 "HgN/A
6:20 PM66 °FPartly sunny.5 mph46%30.12 "HgN/A
5:20 PM66 °FScattered clouds.2 mph43%30.12 "HgN/A
4:20 PM66 °FPassing clouds.2 mph43%30.15 "HgN/A
3:20 PM66 °FScattered clouds.3 mph43%30.18 "HgN/A
2:20 PM64 °FScattered clouds.1 mph43%30.18 "HgN/A
1:20 PM63 °FPartly sunny.2 mph42%30.21 "HgN/A
12:20 PM61 °FPartly sunny.1 mph55%30.24 "HgN/A
11:20 AM57 °FPartly sunny.2 mph63%30.24 "HgN/A
10:20 AM54 °FScattered clouds.2 mph67%30.27 "HgN/A
9:20 AM50 °FPassing clouds.1 mph71%30.30 "HgN/A
8:20 AM46 °FPassing clouds.No wind76%30.30 "HgN/A
Weather by CustomWeather, © 2016

See weather overviewHow to use our weather pages